APSTAR-6C

Last updated on Mon Jun 22 2026 00:03:06 GMT+0000 (Coordinated Universal Time)

1 43450U 18041A 26172.00472213 -.00000319 00000+0 00000+0 0 9999 2 43450 0.0280 327.7887 0000708 350.4795 86.6408 1.00282002 29848
UTC large
Height (km)
Speed (km/s)
/
Latitude / Longitude
Inclination (degrees)
Orbital Period (minutes)
Azimuth
Elevation
Range (km)
Doppler Factor

Next 0 passes for location: London (51.5072 / 0.1276)

No passes found over London.
APSTAR-6C